OpenBCM V1.08-5-g2f4a (Linux)

Packet Radio Mailbox

IZ3LSV

[San Dona' di P. JN]

 Login: GUEST





  
I0OJJ  > KEPS     15.05.25 03:30l 355 Lines 16922 Bytes #17 (0) @ AMSAT
BID : ORB25135.1
Read: GUEST
Subj: 2Line Orbital Elements 25135.AMSAT
Path: IZ3LSV<I3XTY<I0OJJ
Sent: 250515/0025z @:I0OJJ.ITA.EU [Rome] obcm1.08-10-g596e
From: I0OJJ @ I0OJJ.ITA.EU (Gustavo)
To:   KEPS @ AMSAT
X-Info: This message was generated automatically


QST de W1STR

AMSAT Orbital Elements for Amateur Satellites in TLE Format
From Orbital Analysis Office
New England Sci-Tech STEM Education Center
Natick, MA May 15, 2025
To all radio amateurs


These element sets describe the orbits of various satellites 
in use by the amateur radio community. For details see:
www.amsat.org/keplerian-elements-formats/

A daily update of element sets is available at:
www.amsat.org/tle/daily-bulletin.txt
or without bulletin text:
www.amsat.org/tle/dailytle.txt


AO-07
1 07530U 74089B   25134.49276269 -.00000048  00000-0 -12199-4 0  9993
2 07530 101.9939 138.4786 0012274 170.1432 345.0176 12.53689069310559
UO-11
1 14781U 84021B   25134.46620593  .00001529  00000-0  16694-3 0  9992
2 14781  97.7527 101.3561 0009339  67.2997 292.9207 14.89308828218756
AO-27
1 22825U 93061C   25134.41322858  .00000138  00000-0  69692-4 0  9994
2 22825  98.7382 195.8360 0008377 181.8725 178.2427 14.30790320649972
FO-29
1 24278U 96046B   25134.57982495  .00000014  00000-0  48700-4 0  9990
2 24278  98.5788  31.8906 0350808  50.0731 313.0685 13.53247279419257
NOAA-15
1 25338U 98030A   25134.79756157  .00000235  00000-0  11420-3 0  9994
2 25338  98.5368 160.5474 0011464  77.2977 282.9484 14.26964655404726
GO-32
1 25397U 98043D   25134.41882066  .00000082  00000-0  55723-4 0  9996
2 25397  98.9692 112.9943 0000398 337.3471  22.7689 14.24308397394560
ISS
1 25544U 98067A   25134.86348141  .00008530  00000-0  15985-3 0  9997
2 25544  51.6348 112.1514 0002284 110.5047 249.6187 15.49530830509995
NO-44
1 26931U 01043C   25134.51946719  .00000158  00000-0  90112-4 0  9997
2 26931  67.0503 195.2192 0005844 273.7973  86.2461 14.31721799233539
SO-50
1 27607U 02058C   25134.56576302  .00001195  00000-0  16691-3 0  9998
2 27607  64.5529 280.8297 0053232 340.0374  19.8648 14.81556993205371
CO-55
1 27844U 03031E   25134.54112614  .00000335  00000-0  16511-3 0  9999
2 27844  98.6765 143.1504 0008363 262.1822  97.8407 14.23975882134966
CO-57
1 27848U 03031J   25133.98530971  .00000301  00000-0  15219-3 0  9997
2 27848  98.6792 142.6273 0008274 283.8626  76.1632 14.23313037134586
RS-22
1 27939U 03042A   25134.85958542  .00001301  00000-0  21401-3 0  9996
2 27939  98.3263 303.6941 0012754  92.0245  44.4371 14.72288361157042
NOAA-18
1 28654U 05018A   25134.78712354  .00000236  00000-0  14815-3 0  9994
2 28654  98.8421 214.5530 0013974 198.2037 161.8637 14.13597131 30104
CO-58
1 28895U 05043F   25134.32939494  .00001787  00000-0  29974-3 0  9999
2 28895  98.2465 278.3589 0015082  34.9976 325.2218 14.70928193 43086
CO-65
1 32785U 08021C   25134.53033778  .00005568  00000-0  40536-3 0  9992
2 32785  97.7841 105.5084 0008522 306.6249  53.4192 15.04170375925231
AAUSAT2
1 32788U 08021F   25134.44592206  .01171234  73128-3  21174-2 0  9996
2 32788  97.5852 133.2077 0009102 164.9360 195.2192 16.01647434929285
CO-66
1 32791U 08021J   25134.40932925  .00013103  00000-0  64573-3 0  9998
2 32791  97.7271 113.8825 0001573 241.7077 118.3998 15.18080964926524
RS-30
1 32953U 08025A   25134.80966777  .00000047  00000-0  26658-3 0  9993
2 32953  82.5033 243.2006 0020557 102.7401 257.5978 12.43164067770333
NOAA-19
1 33591U 09005A   25134.86019681  .00000218  00000-0  14014-3 0  9993
2 33591  98.9982 199.4187 0014767  78.2978 281.9850 14.13361174838477
SRMSAT
1 37841U 11058D   25134.65309527  .00000444  00000-0  97604-4 0  9992
2 37841  19.9731 311.4443 0011773 139.5655 293.6441 14.11427798701661
ZACUBE-1
1 39417U 13066B   25134.84394207  .00004096  00000-0  35913-3 0  9995
2 39417  97.7799  92.0026 0045609 135.9440 224.5430 14.96402654621069
Delfi-N3xt
1 39428U 13066N   25134.33881898  .00007274  00000-0  74462-3 0  9991
2 39428  97.8365  52.2914 0087412  86.9413 274.1802 14.87966988615172
GOMX-1
1 39430U 13066Q   25134.84995115  .00001560  00000-0  24989-3 0  9999
2 39430  97.6862 355.0913 0131166 274.9291  83.6951 14.67544760611630
LO-74
1 39440U 13066AA  25134.41699324  .00003223  00000-0  33095-3 0  9992
2 39440  97.8487  79.1646 0060442 266.5134  92.9168 14.89760611617542
AO-73
1 39444U 13066AE  25134.43458306  .00007699  00000-0  58129-3 0  9997
2 39444  97.7822  96.2555 0043094 114.0718 246.5024 15.01939303619660
DTUSAT-2
1 40030U 14033W   25134.34801014  .00006766  00000-0  44483-3 0  9995
2 40030  98.0535 104.9094 0010364 140.0318 220.1674 15.07900347592449
EO-80
1 40032U 14033Y   25134.36971519  .00007063  00000-0  46309-3 0  9997
2 40032  98.0429 104.6232 0010872  89.3664 270.8808 15.07979142592425
LILACSAT-2
1 40908U 15049K   25134.79033365  .00011540  00000-0  30744-3 0  9993
2 40908  97.5070 154.5238 0007539 246.2278 113.8176 15.38316642534260
IO-86
1 40931U 15052B   25038.81889873  .00001817  00000-0  15548-3 0  9993
2 40931   6.0001 108.1159 0012838 187.7041 172.2889 14.78568669506492
Horyu-4
1 41340U 16012D   25134.16559866  .00024441  00000-0  67671-3 0  9998
2 41340  30.9976 309.4227 0006799 132.4354 227.6867 15.35738701508728
Lapan A3
1 41603U 16040E   25134.85919348  .00003600  00000-0  12751-3 0  9995
2 41603  97.1372 140.4793 0011206  11.9370 348.2134 15.29681947493850
CAS-2T
1 41847U 16066G   25134.47857806  .00000890  00000-0  13719-3 0  9994
2 41847  98.4204 209.1666 0345155 257.4286  98.8103 14.43407085447257
CAS-4B
1 42759U 17034B   25134.82160103  .00063027  00000-0  74866-3 0  9990
2 42759  43.0066 115.0352 0017898 112.5137 247.7623 15.60111065438572
CAS-4A
1 42761U 17034D   25134.87391362  .00066400  00000-0  75561-3 0  9992
2 42761  43.0104 112.1356 0019137 117.6547 242.6263 15.61176335438609
TechnoSat
1 42829U 17042E   25134.72265980  .00002849  00000-0  22380-3 0  9994
2 42829  97.3931 304.6709 0014207  14.1473 346.0147 15.01574357426849
AO-91
1 43017U 17073E   25134.58797396  .00007075  00000-0  36803-3 0  9994
2 43017  97.5282   6.0219 0172528 255.0665 103.1404 15.04328512405308
S-Net D
1 43186U 18014G   25134.48514386  .00005164  00000-0  30799-3 0  9997
2 43186  97.5648  37.6601 0007998 324.4661  35.6035 15.11566906398434
S-Net B
1 43187U 18014H   25134.29160146  .00005098  00000-0  30424-3 0  9999
2 43187  97.5655  37.4389 0008607 319.3231  40.7355 15.11546715398403
S-Net A
1 43188U 18014J   25134.28701748  .00005503  00000-0  32788-3 0  9994
2 43188  97.5661  37.5811 0008526 320.0502  40.0100 15.11571356398402
S-Net C
1 43189U 18014K   25134.29393169  .00004820  00000-0  28786-3 0  9994
2 43189  97.5678  37.5979 0009813 310.5746  49.4629 15.11543583396958
Ten-Koh
1 43677U 18084G   25134.52205130  .00002149  00000-0  17593-3 0  9995
2 43677  98.0890 305.7443 0006278  12.0823 348.0549 15.00455524356332
PO-101
1 43678U 18084H   25134.80984474  .00002175  00000-0  18854-3 0  9992
2 43678  98.1011 309.9551 0008195  17.3282 342.8217 14.98211643356525
QO-100
1 43700U 18090A   25134.75392082  .00000161  00000-0  00000+0 0  9990
2 43700   0.0128 275.3630 0002446 176.8904  77.7326  1.00275573 23922
MinXSS-2
1 43758U 18099A   25134.41693208  .00015604  00000-0  62846-3 0  9997
2 43758  97.5027 200.3821 0010908 241.4806 118.5334 15.24896319352988
AO-95
1 43770U 18099N   25134.59388087  .00008171  00000-0  41916-3 0  9992
2 43770  97.4925 192.9734 0009143 305.7451  54.2931 15.16763689352619
RANGE-A
1 43773U 18099R   25134.67248822  .00004616  00000-0  29679-3 0  9998
2 43773  97.4501 183.8267 0009635 281.6469  78.3679 15.08851756352316
MOVE-II
1 43780U 18099Y   25134.85917882  .00177050  00000-0  16903-2 0  9993
2 43780  97.4666 208.7194 0006329 210.7540 149.3350 15.66166102353765
SNUSat 2
1 43782U 18099AA  25134.11072872  .00007863  00000-0  43349-3 0  9994
2 43782  97.4611 189.4608 0010924 240.1464 119.8683 15.14205999352491
SnugLite
1 43784U 18099AC  25134.43188019  .00010073  00000-0  51163-3 0  9992
2 43784  97.4424 189.2851 0002502 222.4376 137.6664 15.17079360352672
ITASat 1
1 43786U 18099AE  25134.41810941  .00006687  00000-0  38585-3 0  9997
2 43786  97.4582 189.3478 0012729 299.1790  60.8167 15.12605250352503
EAGLET 1
1 43790U 18099AJ  25134.68816573  .00004187  00000-0  26972-3 0  9998
2 43790  97.4780 189.6516 0010423 278.7781  81.2267 15.08834271352168
ESEO
1 43792U 18099AL  25134.09677237  .00001732  00000-0  13466-3 0  9994
2 43792  97.4463 182.6910 0011450 254.3936 105.6026 15.02497228351841
CSIM
1 43793U 18099AM  25134.25805154  .00150405  00000-0  14778-2 0  9992
2 43793  97.4839 210.3120 0007963 208.7133 151.3689 15.65512827353518
JO-97
1 43803U 18099AX  25134.65590283  .00010906  00000-0  50551-3 0  9993
2 43803  97.4672 193.9730 0006739 224.0937 135.9762 15.20232089352835
Suomi 100
1 43804U 18099AY  25134.43158572  .00010292  00000-0  51019-3 0  9999
2 43804  97.4743 193.1197 0011390 232.8709 127.1485 15.17875918352731
ISAT
1 43879U 18111D   25134.71675222  .00018438  00000-0  65775-3 0  9997
2 43879  97.5977  48.5571 0006531 296.5853  63.4717 15.28922203347725
UWE-4
1 43880U 18111E   25134.49985501  .00014318  00000-0  57289-3 0  9992
2 43880  97.5922  46.9915 0010284 309.1665  50.8658 15.25145799349655
Sparrow
1 43881U 18111F   25134.52278768  .00019892  00000-0  68471-3 0  9994
2 43881  97.6118  51.1378 0006068 351.7449   8.3690 15.30074500349801
Prox-1
1 44339U 19036A   25134.58717654  .00009828  00000-0  12525-2 0  9994
2 44339  23.9966 232.4703 0007717 131.2282 228.8881 14.79436096314163
SONATE
1 44400U 19038Q   25134.55523684  .00165233  00000-0  77813-3 0  9995
2 44400  97.6927 158.2367 0001606   2.2461 357.8814 15.82659217325444
Taurus 1
1 44530U 19059C   25134.85299961  .00006579  00000-0  12213-2 0  9992
2 44530  98.6047 273.0351 0010800 117.9552 242.2745 14.65525417300179
